Location: Roland
(31.1349°N, 85.4372°W)
Time: 12:56:16
(UTC+00:00)

X-37B - Pass Details

Date: 11 March 2021
Orbit: 380 x 394 km, 45.0° (Epoch: 07 April)

Event Time Altitude Azimuth Distance (km) Brightness Sun altitude
Rises 00:43:26 0° 235° (SW) 2,255 5.3 -12.9°
Reaches altitude 10° 00:45:29 10° 237° (WSW) 1,406 4.2 -13.4°
Maximum altitude 00:48:39 80° 324° (NW) 397 0.6 -14.1°
Enters shadow 00:50:32 22° 50° (NE) 899 2.0 -14.5°
